Location: *
(46.1833°N, 22.7667°E)
Time: 02:35:52
(UTC+00:00)

Meteor 1-12 Rocket - Pass Details

Date: 17 September 2019
Orbit: 854 x 926 km, 81.2° (Epoch: 16 October)

Event Time Altitude Azimuth Distance (km) Brightness Sun altitude
Rises 17:15:57 0° 176° (S) 3,471 7.2 -7.5°
Reaches altitude 10° 17:18:27 10° 172° (S) 2,526 6.5 -7.9°
Maximum altitude 17:24:02 56° 95° (E) 1,023 4.3 -8.8°
Drops below altitude 10° 17:29:34 10° 19° (NNE) 2,507 6.6 -9.8°
Sets 17:32:02 0° 15° (NNE) 3,443 7.4 -10.2°
